Flag for U.S.A. Weather past 2 weeks in Miami, Florida, U.S.A.

Now
90 °F

Broken clouds.


Feels Like: 103 °F
Forecast: 80 / 88 °F
Wind: 14 mph from Southeast

Location: Miami International Airport

Current Time: Aug 31, 2015 at 2:16:48 PM

Latest Report: Aug 31, 2015 at 1:53 PM


Visibility: 10 mi

Pressure: 30.05 "Hg

Humidity: 66%

Dew point: 77 °F

Location of MiamiLocation

Historic Weather in Miami — Graph

°F

Miami temperature yesterday

Maximum temperature yesterday: 83 °F (at 10:53 AM)
Minimum temperature yesterday: 77 °F (at 2:53 AM)
Average temperature yesterday: 80 °F

Past Weeks' High & Low Weather Summary

 TemperatureHumidityPressure
High92 °F (Aug 23, 1:53 PM)97% (Aug 30, 4:53 AM)30.09 "Hg (Aug 30, 4:53 AM)
Low75 °F (Aug 27, 10:53 AM)56% (Aug 16, 1:53 PM)29.88 "Hg (Aug 24, 5:53 PM)
Average84 °F77%29.98 "Hg
* Reported Aug 16 12:53 PM — Aug 31 12:53 PM, Miami, Weather by CustomWeather, © 2015

Note: Actual official high and low records may vary slightly from our data, if they occured in-between our weather recording intervals... More about our weather records

Advertising

Miami weather history for previous 24 hours

 ConditionsComfort  
Time TempWeatherWind HumidityBarometerVisibility
12:53 PM
Mon, Aug 31
89 °FScattered clouds.13 mph68%30.06 "Hg10 mi
11:53 AM89 °FPartly sunny.13 mph70%30.06 "Hg10 mi
10:53 AM87 °FPartly sunny.9 mph72%30.05 "Hg10 mi
10:02 AM86 °FPartly sunny.13 mph75%30.04 "Hg10 mi
8:53 AM85 °FPassing clouds.9 mph75%30.03 "Hg10 mi
7:53 AM82 °FPassing clouds.8 mph79%30.02 "Hg10 mi
6:53 AM79 °FPassing clouds.5 mph82%30.01 "Hg10 mi
5:53 AM79 °FPassing clouds.6 mph88%29.99 "Hg10 mi
4:53 AM80 °FPassing clouds.5 mph85%29.99 "Hg10 mi
3:53 AM81 °FPassing clouds.No wind85%29.99 "Hg10 mi
2:53 AM80 °FPassing clouds.No wind87%30.01 "Hg10 mi
1:53 AM80 °FPassing clouds.5 mph85%30.02 "Hg10 mi
12:53 AM80 °FPassing clouds.No wind85%30.03 "Hg10 mi
11:53 PM
Sun, Aug 30
81 °FPartly cloudy.No wind82%30.03 "Hg10 mi
10:53 PM81 °FPassing clouds.5 mph85%30.03 "Hg10 mi
9:53 PM81 °FMostly cloudy.5 mph82%30.03 "Hg10 mi
8:53 PM81 °FMostly cloudy.7 mph82%30.00 "Hg10 mi
7:53 PM81 °FMore clouds than sun.6 mph82%29.99 "Hg10 mi
6:53 PM82 °FMostly cloudy.7 mph82%29.98 "Hg10 mi
5:53 PM81 °FMostly cloudy.8 mph85%30.00 "Hg10 mi
4:53 PM80 °FMostly cloudy.9 mph85%30.01 "Hg10 mi
3:53 PM79 °FMostly cloudy.9 mph90%29.99 "Hg10 mi
2:53 PM79 °FMostly cloudy.9 mph94%30.01 "Hg10 mi
Weather by CustomWeather, © 2015

See weather overviewHow to use our weather pages